Flag for U.S.A. Weather past 2 weeks in Metlakatla, Alaska, U.S.A.

Now
57 °F

Cloudy.


Feels Like: 55 °F
Forecast: 53 / 61 °F
Wind: 8 mph from South

Location: Metlakatla - Metlakatla Seaplane Base

Current Time: Aug 29, 2014 at 7:11:17 PM

Latest Report: Aug 29, 2014 at 6:36 PM


Visibility: 8 mi

Pressure: 29.63 "Hg

Humidity: 88%

Dew point: 54 °F

Location of MetlakatlaLocation

Historic Weather in Metlakatla — Graph

°F

Metlakatla temperature yesterday

Maximum temperature yesterday: 61 °F (at 12:56 PM)
Minimum temperature yesterday: 52 °F (at 1:56 AM)
Average temperature yesterday: 55 °F

Past Weeks' High & Low Weather Summary

 TemperatureHumidityPressure
High63 °F (Aug 26, 1:16 PM)94% (Aug 21, 2:56 AM)30.15 "Hg (Aug 21, 2:56 AM)
Low52 °F (Aug 20, 4:36 AM)72% (Aug 19, 8:16 PM)29.63 "Hg (Aug 29, 2:36 PM)
Average56 °F88%29.98 "Hg
* Reported Aug 15 6:02 PM — Aug 29 5:56 PM, Metlakatla, Weather by CustomWeather, © 2014

Note: Actual official high and low records may vary slightly from our data, if they occured in-between our weather recording intervals... More about our weather records

Advertising

Metlakatla weather history for previous 24 hours

 ConditionsComfort  
Time TempWeatherWind HumidityBarometerVisibility
5:56 PM
Aug 29
57 °FBroken clouds.8 mph88%29.63 "Hg8 mi
5:36 PM57 °FMostly cloudy.8 mph88%29.63 "Hg8 mi
5:16 PM57 °FMore clouds than sun.8 mph88%29.63 "Hg9 mi
4:56 PM57 °FCloudy.8 mph88%29.63 "Hg9 mi
4:36 PM57 °FMore clouds than sun.7 mph88%29.63 "Hg10 mi
4:16 PM57 °FCloudy.13 mph88%29.64 "Hg8 mi
3:56 PM57 °FBroken clouds.10 mph88%29.63 "Hg7 mi
3:36 PM57 °FCloudy.12 mph88%29.63 "Hg8 mi
3:16 PM57 °FCloudy.9 mph94%29.63 "Hg7 mi
2:56 PM57 °FCloudy.9 mph94%29.63 "Hg10 mi
2:36 PM57 °FCloudy.13 mph94%29.63 "Hg10 mi
1:36 PM57 °FMostly cloudy.10 mph94%29.64 "Hg9 mi
1:16 PM57 °FMostly cloudy.15 mph94%29.65 "Hg10 mi
11:16 AM57 °FCloudy.8 mph88%29.66 "Hg10 mi
10:56 AM55 °FMostly cloudy.13 mph94%29.66 "Hg10 mi
10:36 AM55 °FMostly cloudy.9 mph94%29.67 "Hg10 mi
9:56 AM55 °FOvercast.14 mph94%29.66 "Hg10 mi
9:36 AM55 °FMostly cloudy.12 mph88%29.67 "Hg10 mi
9:16 AM55 °FCloudy.10 mph88%29.67 "Hg7 mi
8:36 AM55 °FCloudy.12 mph88%29.68 "Hg10 mi
8:16 AM55 °FCloudy.12 mph88%29.68 "Hg9 mi
7:56 AM55 °FPartly sunny.14 mph88%29.69 "Hg10 mi
7:36 AM55 °FMostly cloudy.17 mph88%29.69 "Hg6 mi
7:16 AM55 °FMostly cloudy.10 mph88%29.69 "Hg10 mi
6:56 AM55 °FMostly cloudy.12 mph88%29.70 "Hg10 mi
6:36 AM55 °FMostly cloudy.12 mph88%29.70 "Hg10 mi
6:16 AM55 °FMostly cloudy.9 mph88%29.71 "Hg9 mi
5:56 AM55 °FMostly cloudy.10 mph82%29.71 "Hg7 mi
5:36 AM55 °FPartly cloudy.9 mph82%29.71 "Hg7 mi
5:16 AM55 °FMostly cloudy.10 mph88%29.72 "Hg10 mi
4:56 AM54 °FOvercast.8 mph88%29.73 "Hg5 mi
4:36 AM54 °FMostly cloudy.5 mph88%29.74 "Hg7 mi
3:56 AM54 °FPartly cloudy.6 mph82%29.76 "Hg5 mi
3:36 AM54 °FPartly cloudy.8 mph88%29.77 "Hg9 mi
3:16 AM54 °FPartly cloudy.12 mph82%29.77 "Hg10 mi
2:56 AM54 °FPartly cloudy.13 mph88%29.78 "Hg10 mi
2:36 AM54 °FPartly cloudy.10 mph88%29.79 "Hg10 mi
2:16 AM54 °FMostly cloudy.9 mph82%29.79 "Hg10 mi
1:56 AM54 °FOvercast.7 mph82%29.80 "Hg10 mi
1:36 AM54 °FMostly cloudy.10 mph82%29.82 "Hg10 mi
1:16 AM54 °FMostly cloudy.9 mph88%29.82 "Hg10 mi
12:56 AM54 °FMostly cloudy.8 mph88%29.83 "Hg10 mi
12:36 AM54 °FMostly cloudy.8 mph88%29.83 "Hg10 mi
12:16 AM54 °FOvercast.12 mph94%29.84 "Hg9 mi
11:56 PM
Aug 28
54 °FOvercast.8 mph88%29.84 "Hg10 mi
11:36 PM54 °FPartly cloudy.10 mph88%29.85 "Hg10 mi
11:16 PM54 °FOvercast.9 mph88%29.86 "Hg10 mi
10:56 PM55 °FPartly cloudy.9 mph88%29.87 "Hg10 mi
10:36 PM55 °FPartly cloudy.10 mph88%29.87 "Hg9 mi
9:56 PM55 °FMostly cloudy.6 mph88%29.89 "Hg10 mi
9:36 PM55 °FMostly cloudy.8 mph88%29.89 "Hg10 mi
9:16 PM55 °FMostly cloudy.6 mph88%29.90 "Hg8 mi
8:56 PM55 °FOvercast.7 mph88%29.91 "Hg9 mi
8:36 PM54 °FCloudy.8 mph82%29.91 "Hg8 mi
8:16 PM55 °FOvercast.5 mph77%29.92 "Hg10 mi
7:56 PM54 °FOvercast.3 mph82%29.93 "Hg10 mi
7:36 PM55 °FOvercast.6 mph82%29.94 "Hg10 mi
7:16 PM55 °FOvercast.5 mph88%29.95 "Hg10 mi
Weather by CustomWeather, © 2014

See weather overviewHow to use our weather pages